This is the latest recevied weather packets stored in our database for station/object PY2UTU-WX. If no packets are shown the sender has not sent any weather packets the latest 10 day(s).
| Time | Temp. | Humidity | Pressure | Rain* | Wind** | Luminosity | Snow |
|---|---|---|---|---|---|---|---|
| 1777676243 | 22.78° C | 98% | 925.1 hPa | - | - | - | - |
| 1777675343 | 22.78° C | 98% | 925 hPa | - | - | - | - |
| 1777674444 | 23.33° C | 98% | 924.8 hPa | - | - | - | - |
| 1777673543 | 23.89° C | 98% | 924.6 hPa | - | - | - | - |
| 1777672643 | 23.89° C | 98% | 924.5 hPa | - | - | - | - |
| 1777671743 | 23.89° C | 98% | 924.3 hPa | - | - | - | - |
| 1777670843 | 23.89° C | 98% | 924.3 hPa | - | - | - | - |
| 1777669943 | 24.44° C | 98% | 924.4 hPa | - | - | - | - |
| 1777669043 | 24.44° C | 98% | 924.3 hPa | - | - | - | - |
| 1777668142 | 25° C | 98% | 924.2 hPa | - | - | - | - |
| 1777667242 | 26.11° C | 98% | 924.2 hPa | - | - | - | - |
| 1777666343 | 26.11° C | 98% | 924.1 hPa | - | - | - | - |
| 1777665442 | 26.67° C | 98% | 924.1 hPa | - | - | - | - |
| 1777664542 | 26.67° C | 98% | 924.1 hPa | - | - | - | - |
| 1777663642 | 26.67° C | 98% | 924.2 hPa | - | - | - | - |
| 1777662743 | 26.67° C | 98% | 924 hPa | - | - | - | - |
| 1777661843 | 26.67° C | 98% | 924.1 hPa | - | - | - | - |
| 1777660942 | 26.11° C | 98% | 924.1 hPa | - | - | - | - |
| 1777660042 | 26.67° C | 98% | 924.2 hPa | - | - | - | - |
| 1777659142 | 26.11° C | 98% | 924.3 hPa | - | - | - | - |
| 1777658242 | 26.67° C | 98% | 924.3 hPa | - | - | - | - |
| 1777657342 | 26.67° C | 98% | 924.4 hPa | - | - | - | - |
| 1777656442 | 26.67° C | 98% | 924.5 hPa | - | - | - | - |
| 1777655542 | 26.67° C | 98% | 924.7 hPa | - | - | - | - |
| 1777654642 | 26.11° C | 98% | 924.9 hPa | - | - | - | - |
* Rain since midnight (hover to see other rain measurements)
** Current wind speed in m/s (hover to see current wind gust speed)